Tracking 20242 objects as of 24-Jan-2020
HD Live streaming from Space Station
objects crossing your sky now

COSMOS 2251 DEB

Track COSMOS 2251 DEB now!
10-day predictions


NORAD ID: 35612
Int'l Code: 1993-036ANF
Perigee: 446.7 km
Apogee: 465.7 km
Inclination: 74.0 °
Period: 93.6 minutes
Semi major axis: 6827 km
RCS: 0.0062 m2 (small)
Launch date: June 16, 1993
Source: Commonwealth of Independent States (former USSR) (CIS)
Launch site: PLESETSK MISSILE AND SPACE COMPLEX (PKMTR)

Note: This is SATELLITE DEBRIS
aabbcc
Your satellite tracking list
Your tracking list is empty




NASA's NSSDC Master Catalog

Two Line Element Set (TLE):
1 35612U 93036ANF 20023.65290202  .00029574  00000-0  76154-3 0  9994
2 35612  73.9793 355.6615 0013921 258.9702 100.9940 15.38996899573833
Source of the keplerian elements: AFSPC